Wind_Speed
21 21 20 21 21 20 20 21 19 17 17 16 16 17 18 18 20 23 24 23 23 24 24 25 25 26 15 5 8 4 4 10 12 14 7 5 5 3 3 5 7 1 3 8 6 6 5
22 22 21 22 23 22 22 22 20 18 18 14 16 16 17 19 20 23 25 25 25 24 23 22 22 21 5 5 3 3 15 14 9 9 10 6 3 3 3 4 1 4 6 9 7 9 5
17 21 21 22 22 21 21 22 20 18 17 14 13 15 16 20 22 23 25 27 26 25 22 20 17 11 3 15 10 18 15 12 13 13 3 8 3 4 3 6 2 6 7 8 7 7 7
13 18 20 21 20 20 20 21 19 15 12 9 12 14 15 19 23 25 26 28 27 25 22 15 11 5 7 17 19 19 10 10 7 12 14 9 2 1 3 4 7 4 3 3 5 3 8
7 8 11 15 18 16 15 14 10 6 5 7 10 14 16 20 21 25 27 27 27 27 19 12 4 2 10 16 8 7 5 5 12 7 14 6 2 2 3 0 4 4 3 4 9 4 2
2 1 1 2 3 5 3 2 2 4 6 7 11 15 17 19 19 22 25 26 22 14 3 2 4 3 8 4 4 3 6 8 3 6 4 2 3 1 2 4 4 3 2 4 4 8 8
7 7 6 7 7 6 6 6 7 7 8 10 12 15 17 18 19 20 23 12 6 4 2 5 4 5 11 10 17 2 5 7 1 2 2 3 3 7 8 7 7 6 4 4 4 4 5
9 9 8 9 10 10 10 10 10 10 11 11 14 14 14 15 16 17 13 2 4 5 9 14 18 17 29 18 10 14 8 2 1 5 2 4 6 13 7 8 8 6 4 5 5 5 1
11 10 9 10 9 8 6 7 7 7 8 8 10 14 14 12 15 11 4 6 7 10 4 12 7 6 6 15 10 18 7 3 5 4 7 7 6 4 5 7 7 3 4 2 3 4 5
15 14 13 12 12 12 10 9 9 8 8 9 9 11 11 8 9 10 4 7 7 5 4 7 4 4 3 4 4 2 11 8 3 7 8 7 8 10 6 5 5 3 0 2 2 4 2
13 13 15 14 15 15 14 12 11 11 9 8 10 8 10 7 9 3 7 14 10 2 4 4 2 3 2 4 3 2 4 4 4 4 3 7 6 4 4 4 3 4 2 2 2 2 1
10 11 15 15 16 18 18 16 14 13 10 8 9 9 7 6 7 7 11 9 3 5 7 4 1 1 2 1 2 1 3 4 1 2 5 8 5 3 5 3 1 2 3 5 4 3 2
11 11 12 14 16 18 19 19 17 15 12 9 8 9 8 9 3 11 8 2 4 4 5 3 3 4 3 3 3 5 4 2 4 1 3 3 5 5 6 5 2 2 4 3 3 2 4
12 13 13 15 15 18 20 22 20 18 14 11 9 8 8 13 8 6 2 3 5 5 7 3 1 6 6 5 6 7 2 3 6 3 2 3 5 3 5 7 8 6 7 4 3 3 4
14 13 14 14 15 16 19 22 23 21 17 12 9 7 9 14 10 4 3 2 7 6 5 5 1 4 4 4 5 5 7 5 5 10 7 2 4 3 5 4 5 3 4 6 3 2 2
11 12 14 13 14 14 16 20 22 23 18 16 6 3 12 9 12 5 2 7 5 4 4 2 3 5 6 5 5 4 4 2 2 2 5 3 3 3 4 4 4 1 2 1 1 3 5
15 15 15 17 15 15 15 17 21 23 23 17 5 2 6 15 15 2 6 6 4 12 5 2 1 3 3 3 4 3 5 5 4 4 3 1 4 5 3 1 2 5 3 3 1 4 4
15 15 17 19 21 16 16 16 19 25 25 19 6 2 3 25 5 3 8 5 5 8 3 4 4 4 4 3 1 2 1 3 6 1 2 2 3 3 6 5 7 5 4 3 3 4 3
16 17 16 17 18 21 18 17 17 28 35 21 4 3 11 20 5 4 5 6 8 5 4 3 4 5 1 2 2 2 2 1 4 2 3 1 1 3 7 5 5 2 3 3 2 2 3
19 19 17 17 17 19 21 19 19 25 36 26 3 4 2 3 3 5 5 9 12 8 14 10 5 5 3 4 3 3 1 3 6 3 4 4 3 6 8 4 0 6 9 4 1 2 3
22 21 21 20 19 19 20 22 19 20 41 23 4 4 5 7 9 9 5 4 11 9 9 10 5 6 5 4 1 3 2 3 4 2 3 4 5 4 5 5 6 10 14 14 9 8 7
20 21 22 22 21 20 20 21 22 20 33 16 4 4 3 2 7 16 14 8 11 10 7 5 4 4 5 6 8 6 5 3 5 3 4 3 5 5 5 6 9 14 11 14 17 14 15
23 22 23 21 21 21 21 20 21 20 20 5 8 4 2 4 6 9 14 17 15 10 8 12 9 5 7 4 4 3 5 4 3 2 2 1 2 1 6 3 8 9 17 15 10 10 9
26 25 23 22 21 21 21 21 20 21 20 10 11 4 2 3 8 10 8 13 17 17 5 2 7 5 3 6 5 3 0 5 6 8 7 5 4 3 2 4 7 8 5 8 11 13 13
31 28 27 26 25 24 24 23 22 20 20 18 16 6 3 2 5 10 12 11 8 14 9 7 2 3 6 5 3 2 3 4 6 15 17 14 5 1 2 6 9 13 9 2 5 7 7
32 32 30 29 28 27 27 25 23 22 20 19 22 28 4 2 5 4 8 10 6 4 4 4 2 9 6 3 3 3 3 2 4 6 1 8 7 5 1 4 5 5 4 5 2 5 5
30 30 30 30 29 29 28 26 25 23 21 19 13 21 8 2 4 5 5 5 5 2 4 3 3 4 4 2 2 3 3 3 3 3 2 3 2 12 10 7 7 9 10 2 3 6 5
26 28 30 30 30 30 29 27 25 25 24 22 13 27 10 3 3 4 4 4 2 4 4 3 4 3 3 3 3 3 4 5 5 6 3 5 5 4 6 5 9 4 1 7 5 3 3
24 23 24 28 29 29 29 27 27 27 26 22 17 35 18 2 2 3 5 1 2 7 5 2 5 2 3 3 2 2 3 2 2 2 4 4 3 2 3 5 2 2 3 3 4 2 2
Wind_Direction
264 263 265 266 269 272 275 275 267 273 278 286 295 307 316 317 321 323 325 325 326 324 327 327 333 337 347 350 258 306 1 353 349 343 323 348 33 28 341 304 339 221 319 310 301 293 256
262 261 263 263 265 269 269 272 257 266 263 270 291 300 307 312 318 320 321 321 322 321 323 324 329 338 352 296 242 321 320 322 306 325 335 15 1 288 279 298 269 300 307 295 300 291 279
270 266 262 263 264 264 265 266 247 256 253 264 284 296 305 310 313 317 317 316 317 317 316 323 325 347 292 246 301 308 315 307 290 286 281 303 323 69 338 309 313 277 312 324 270 267 250
278 268 264 260 258 257 254 242 239 240 253 271 281 291 300 307 315 316 315 314 313 311 309 320 319 332 249 283 311 299 300 294 320 266 256 267 49 149 179 270 331 327 20 351 316 343 254
319 313 282 259 245 225 222 223 224 225 258 278 295 301 306 305 311 317 314 315 311 302 296 309 295 123 268 311 285 324 263 306 331 17 236 230 91 207 354 46 352 353 249 226 307 99 354
278 263 205 192 194 192 178 172 260 246 268 285 296 301 308 305 313 317 320 318 310 305 351 94 267 322 268 312 287 280 322 305 302 341 29 155 60 6 15 71 237 250 280 295 279 318 7
231 233 244 266 265 245 235 238 247 264 276 292 304 308 306 305 315 324 334 342 3 353 16 217 210 271 295 284 299 238 325 313 187 9 216 258 118 232 224 214 237 270 249 252 251 296 358
237 247 255 251 252 255 262 263 261 262 267 284 296 304 308 311 311 315 320 337 34 280 298 254 248 251 253 268 294 284 302 333 199 234 277 318 227 244 236 264 222 230 252 283 287 353 325
242 248 250 251 248 240 240 235 237 247 264 284 305 317 311 313 306 321 318 356 5 327 274 294 225 226 235 198 229 267 177 191 227 248 258 219 259 283 246 274 258 219 204 236 235 323 334
229 233 239 246 245 240 242 231 235 247 268 287 308 325 320 301 309 330 295 344 355 349 327 270 223 248 124 145 258 240 204 165 243 226 240 246 243 246 239 208 181 230 339 132 31 58 249
252 245 243 239 243 247 245 238 235 247 254 280 301 313 312 292 310 318 326 333 338 64 318 262 198 308 119 143 335 3 24 83 192 263 22 255 323 13 330 235 175 205 150 109 160 173 350
259 259 255 250 243 238 238 236 236 243 254 273 289 299 292 276 271 319 321 330 347 53 253 275 128 152 97 289 301 329 44 39 203 256 241 235 278 261 234 294 3 65 40 4 0 119 307
267 266 261 257 252 246 241 239 236 239 243 250 263 283 262 238 233 351 341 12 50 184 307 213 197 168 204 224 226 187 167 182 180 155 264 298 234 227 205 243 244 114 68 344 341 351 232
271 268 268 261 256 248 242 239 234 234 233 237 250 271 257 234 232 334 346 70 205 225 243 326 339 182 180 188 240 202 200 212 245 219 275 222 319 218 342 203 192 181 155 169 237 232 277
272 273 272 269 263 257 250 243 233 228 223 223 241 260 251 241 231 255 99 183 208 195 260 331 230 197 227 236 211 171 212 212 214 196 195 259 255 346 59 355 134 206 154 206 208 245 187
273 269 269 270 268 262 255 244 240 219 215 214 212 239 248 221 196 193 144 239 221 236 344 30 242 214 211 231 194 186 199 332 297 191 157 220 297 312 349 13 343 156 219 80 343 242 232
273 273 272 268 269 265 256 252 245 216 207 199 173 224 266 188 164 186 218 236 291 277 281 263 237 300 292 273 204 216 211 18 16 339 325 96 115 284 5 350 41 353 321 5 232 157 217
277 271 269 270 269 270 262 250 245 228 202 183 144 218 249 162 172 209 224 207 324 295 286 190 162 201 228 324 14 183 217 94 343 342 65 317 152 219 217 254 269 236 253 207 145 253 232
275 274 272 271 267 267 265 257 244 235 197 165 175 205 180 170 199 222 268 233 243 273 272 245 220 194 113 153 286 250 291 194 21 98 140 313 330 321 325 348 6 41 68 41 266 61 215
273 272 269 266 267 267 263 261 247 235 207 183 144 169 278 206 198 187 218 241 245 255 248 245 264 239 178 187 156 230 238 319 12 61 152 95 190 191 246 223 276 291 296 316 153 112 242
269 268 268 266 266 264 261 258 256 238 209 183 186 199 184 198 212 210 193 249 228 239 236 196 216 205 175 206 179 203 229 320 326 198 233 138 218 239 253 240 264 271 284 297 268 227 228
269 266 264 264 262 264 261 259 254 248 219 181 156 184 173 197 165 200 215 213 239 245 244 239 186 200 210 184 186 208 196 176 241 347 182 180 244 193 292 274 272 270 258 252 265 273 258
269 268 266 264 262 258 256 256 258 256 236 127 206 282 149 178 170 182 214 222 236 241 266 240 217 198 238 199 181 177 162 164 191 201 225 206 174 88 273 246 313 284 241 241 247 237 242
265 263 262 261 258 255 255 254 255 256 248 174 196 131 178 203 193 210 209 207 227 233 243 255 229 178 172 118 86 60 310 233 231 242 208 196 170 145 244 34 268 245 261 236 239 248 246
260 259 258 256 255 252 250 251 253 253 242 209 198 189 202 210 189 212 220 231 231 234 242 203 207 122 126 66 65 26 341 342 244 233 225 208 183 114 205 224 294 293 282 201 217 263 212
259 255 254 251 249 249 248 247 248 247 237 220 208 198 263 115 233 195 213 226 219 208 204 220 148 148 78 86 86 163 217 260 278 304 254 177 193 164 171 241 248 246 233 246 154 273 216
257 251 247 247 245 247 246 240 245 243 239 238 196 183 172 195 260 167 196 212 178 140 165 183 158 145 84 103 112 167 233 281 265 240 168 136 167 206 221 239 270 245 264 222 166 244 196
255 247 245 243 246 246 241 241 238 239 233 219 214 212 187 197 291 4 322 155 104 119 143 227 62 346 47 98 142 194 218 228 215 241 245 202 180 194 211 231 255 207 54 178 223 291 208
251 242 247 244 242 240 237 237 234 233 235 219 234 196 218 167 225 279 277 27 129 155 131 35 140 133 170 111 174 192 254 306 239 250 176 250 219 283 229 221 268 326 302 277 261 282 276
Height
850 851 852 854 856 854 856 857 857 856 856 856 855 854 852 849 846 844 840 835 832 831 827 825 820 818 811 810 799 788 789 788 787 787 786 785 786 787 795 791 785 782 779 774 769 769 767
846 846 847 849 851 851 851 853 852 852 852 852 853 851 849 848 844 841 838 834 830 828 825 823 821 817 817 816 791 789 786 787 786 786 786 786 787 785 790 790 791 780 781 777 770 769 769
841 842 842 844 845 846 847 848 848 849 850 849 850 849 846 845 842 837 834 832 829 826 823 821 820 818 819 803 790 787 785 784 785 784 785 784 784 787 789 792 782 779 784 780 770 766 768
837 838 838 840 841 841 843 845 845 844 847 847 848 846 843 841 840 835 831 829 826 823 820 820 818 818 812 790 789 785 783 783 782 781 782 783 783 785 788 785 785 786 786 796 771 765 761
834 834 835 837 838 838 840 842 842 842 844 845 844 846 840 840 837 833 828 825 821 819 816 818 817 816 806 789 787 784 783 782 780 778 779 781 782 787 788 798 806 798 806 798 784 766 766
832 833 835 837 837 838 841 842 843 843 844 843 843 842 840 839 835 832 826 823 816 814 814 814 818 820 796 789 784 783 784 784 783 780 780 783 790 798 803 809 817 803 802 796 793 778 773
832 832 831 835 838 839 839 841 841 842 842 842 841 840 839 837 835 832 826 822 820 818 816 809 808 804 793 787 784 782 783 783 782 785 795 787 801 805 799 796 793 794 793 797 789 776 779
830 831 830 831 834 835 836 837 839 840 840 840 840 838 837 836 835 832 829 830 831 832 822 805 798 796 788 790 791 782 784 788 788 797 791 798 803 786 784 784 788 785 790 795 785 777 778
828 829 829 832 833 834 833 835 837 839 840 838 838 837 835 833 833 833 830 829 829 829 827 801 788 784 780 781 786 776 782 784 789 794 794 803 789 778 780 783 785 783 786 789 790 785 779
823 824 826 827 830 832 833 832 834 836 838 838 835 834 834 832 834 833 832 829 827 827 842 804 783 779 775 776 781 772 773 781 787 791 791 792 779 780 778 781 781 788 776 779 784 794 806
820 821 822 823 826 829 831 831 831 834 833 834 836 833 835 834 831 828 833 831 826 827 855 786 780 776 775 780 779 777 775 777 786 787 789 792 782 780 784 779 773 783 774 778 780 790 794
818 819 820 821 822 824 827 827 828 831 833 833 834 834 832 834 833 831 828 828 830 853 845 791 782 783 784 783 780 778 777 777 779 783 785 787 778 780 780 772 772 773 778 783 785 792 810
815 816 817 818 818 820 823 824 825 828 830 831 829 832 832 832 832 830 828 829 855 852 795 788 786 784 787 788 786 783 783 788 795 798 795 781 776 772 770 779 773 776 793 816 816 815 808
813 812 813 815 815 816 817 820 821 825 827 828 828 830 830 828 830 830 829 836 845 806 798 778 779 782 788 782 783 783 784 790 786 788 792 794 796 769 767 773 777 780 788 808 803 807 802
809 808 810 810 811 811 812 815 817 821 823 825 827 828 826 825 830 830 832 843 818 804 789 786 780 786 785 778 782 779 786 785 778 782 795 790 785 767 764 764 767 775 787 775 793 793 806
803 805 805 805 806 807 808 810 812 815 819 824 823 826 822 820 828 830 833 820 807 791 784 783 792 786 791 783 783 781 780 774 774 772 774 778 794 775 769 765 766 770 768 793 797 798 800
800 801 801 801 802 803 804 805 808 811 815 820 823 826 815 816 825 828 828 826 800 788 791 786 788 789 788 782 779 783 779 785 778 779 774 773 791 790 776 777 779 782 786 784 786 796 801
796 797 797 797 799 799 799 800 803 804 812 816 820 826 811 818 825 821 819 808 800 790 786 784 786 786 787 786 786 783 782 780 781 778 783 783 792 809 787 775 773 775 781 783 809 789 791
791 791 792 793 794 795 795 797 798 800 800 810 815 816 812 815 819 821 815 804 802 794 790 785 783 782 781 786 800 793 787 783 781 782 785 783 802 805 793 790 780 780 782 787 787 795 796
786 787 787 789 790 790 790 791 793 796 796 802 807 812 814 808 804 810 812 804 798 790 787 785 782 781 783 786 791 801 788 782 783 784 782 781 792 796 804 796 795 793 786 786 789 826 808
781 782 783 783 784 785 786 787 788 790 790 793 795 797 794 800 799 802 802 797 794 792 780 776 779 780 785 798 789 792 789 787 783 783 784 786 798 795 792 790 789 791 788 784 788 789 794
776 776 777 778 779 779 780 782 782 784 787 782 789 791 789 792 791 796 800 794 792 788 786 776 779 775 779 788 788 793 786 789 792 784 784 787 796 798 829 791 787 790 792 787 777 775 774
769 770 771 771 773 774 774 776 777 778 783 777 782 781 779 784 788 793 788 783 781 780 776 772 772 776 779 777 778 781 782 784 784 786 790 790 793 799 792 788 788 790 776 770 764 762 763
763 763 764 765 766 767 768 770 770 772 776 773 774 777 780 781 780 779 776 778 780 775 778 770 771 775 775 774 777 781 782 782 785 786 784 789 792 800 809 796 807 774 758 757 758 754 750
754 755 757 758 760 761 762 764 765 767 771 768 771 773 777 780 773 774 774 773 772 773 777 773 770 771 774 779 794 790 795 787 781 774 772 776 787 806 807 797 781 762 751 749 751 751 743
744 746 748 750 752 754 756 758 760 762 766 768 767 769 772 773 773 764 768 769 776 776 774 769 767 770 775 791 799 796 794 784 779 764 759 771 779 796 811 791 787 761 746 745 744 763 740
734 736 739 741 743 746 748 751 754 757 761 765 762 765 770 772 765 763 769 768 764 769 774 768 767 773 776 803 806 801 796 780 787 772 764 785 793 789 791 785 773 750 744 744 758 759 737
724 726 728 731 734 737 741 744 748 751 756 761 761 761 765 767 762 761 761 760 761 767 776 771 778 781 792 802 800 797 796 783 779 767 766 774 781 785 781 778 768 741 745 751 748 737 735
716 717 720 722 725 729 733 738 742 746 750 756 758 759 763 761 764 763 761 758 757 759 767 772 775 778 782 789 790 786 785 781 775 784 759 772 768 763 763 760 747 744 744 741 739 736 734